Vertical_Velocity
-2 -1 -3 -0 0 -2 -1 -1 -1 1 1 -1 -1 -2 -0 -3 -2 5 -6 18 8 9 -4 3 2 -1 -2 -1 1 9 4 -0 -9 7 -19 -5 5 -12 -3 3 2 -1 -1 6 -5
-1 -1 -1 -1 -1 -0 -1 -0 1 1 -1 -3 -2 -2 -1 -1 -4 -2 0 -0 -4 -3 -7 -3 -5 -3 -0 -4 1 8 5 -5 -6 -2 -1 -2 6 1 18 -0 -7 6 2 1 -2
-0 -1 -2 -2 -2 -3 -3 -0 0 -1 -1 -2 -3 -3 -3 1 2 3 -0 -1 -1 -1 1 -3 -1 0 1 2 -4 -4 -2 -5 -11 0 4 -1 -1 -3 4 2 -16 -3 17 -2 -1
-2 -1 -1 -0 -1 -0 -1 -2 -2 -2 -3 -3 -2 -1 -1 -2 5 -4 0 -1 -4 -0 3 -3 -3 -1 2 2 1 3 -2 4 -9 -2 5 0 -1 -6 6 -20 -1 -3 0 -2 -1
-0 -1 -1 1 -2 -0 0 -2 -2 -2 -3 -2 -2 -1 -7 -2 2 1 0 -2 -4 -2 1 -3 1 1 3 2 0 8 -3 -0 -4 -0 -2 4 -3 -11 -4 5 5 -3 -3 -0 0
-2 -2 -1 1 0 -1 -1 -0 -1 -2 -3 -3 -1 -1 6 -11 5 4 3 -5 3 -2 0 2 1 -2 2 1 5 0 0 -4 -0 -3 -1 8 -6 21 -12 4 3 -9 -2 -0 1
-1 1 -3 1 -0 -1 0 -2 -1 -2 -3 -3 -1 -0 -1 9 -1 3 -8 5 -3 1 1 2 -2 3 1 -2 1 -4 5 1 0 -4 -3 3 5 -2 -8 -0 -5 -0 -4 -4 -0
-2 -2 -1 -2 0 -1 -1 -3 -3 -2 -4 -3 -1 -2 3 -1 2 -2 -3 -12 3 -0 2 -1 -0 -0 3 -3 -1 4 4 2 4 1 -5 10 -8 -2 0 -2 -1 -2 -5 -4 -5
-2 -3 -2 -3 -1 -1 1 -2 -3 -0 -1 -1 -5 -3 -1 -6 -21 -6 -6 -5 -2 5 2 0 -2 -0 -4 2 3 -0 2 -0 -1 1 1 6 -2 -1 3 2 -0 -3 -3 -3 -6
-3 -4 -1 -5 -2 -1 4 -0 -6 -5 -2 -3 3 6 -1 -6 -1 -8 4 -0 1 3 4 -3 -2 1 -5 -4 4 0 -1 -3 1 -4 -3 2 -3 -0 0 2 1 -4 -2 -5 1
-1 0 -2 -3 -3 -4 0 0 -3 1 -12 -4 -5 -1 -2 -5 3 -4 -17 -5 -2 1 -1 -0 -2 3 5 2 2 2 2 1 -1 -3 7 -2 -0 -0 0 1 -0 -7 -1 -2 -2
1 -0 -1 -3 -3 -4 1 -2 -1 -5 4 1 -1 4 5 6 -3 -6 -14 -6 -1 2 -5 2 2 4 1 0 3 -0 1 0 -2 -1 6 0 -2 -2 0 -1 -1 0 3 -3 -0
-1 0 -1 -5 -1 -3 -6 -4 -2 -2 3 -1 -4 -1 -1 -2 4 -3 -9 0 3 -2 -0 2 6 0 2 -1 -2 -0 2 -0 6 -3 1 2 3 3 3 1 -1 -1 -3 2 -2
-3 -0 1 -5 -6 -1 -2 -0 -0 -1 2 -1 -5 -1 -14 3 2 5 -1 2 -4 3 1 2 -1 1 -1 0 4 0 2 2 0 3 3 4 8 2 1 2 1 -3 0 -2 5
2 2 0 -2 0 -2 -0 -2 -1 -3 2 -8 -3 -1 3 -10 0 -16 2 -4 2 1 7 10 -1 -2 -2 7 3 3 3 2 1 0 3 0 2 2 1 1 0 -1 -4 3 2
1 0 -2 -4 -3 -1 -0 -1 -1 4 1 -2 0 -3 -8 -7 -3 -10 -2 -4 -2 1 -2 3 -2 2 7 -1 1 1 -1 0 -0 1 2 1 5 5 2 6 -3 -2 0 -3 -5
1 -1 -4 -3 -2 -1 -0 -1 1 -4 -0 -4 0 -1 1 -1 -5 -3 -2 -8 -2 -5 -5 -6 0 -1 1 -2 -2 -7 -1 2 2 1 3 0 1 8 -0 1 5 1 -4 1 8
-2 -3 -1 -0 -2 0 -1 0 -8 2 1 -1 1 -4 1 2 -0 -3 -2 -2 -4 -2 0 2 -1 -0 -3 5 6 1 5 3 1 1 2 1 2 8 6 2 3 1 8 6 2
0 2 -0 1 -2 -1 3 -7 3 1 3 2 -5 -1 -1 -2 5 -1 0 2 3 3 3 -0 -3 -6 0 1 8 -1 -2 6 3 1 4 2 4 6 -5 -5 -5 -1 -2 -1 13
-2 1 -3 -0 -2 -3 -10 -1 1 0 0 1 2 2 1 -0 -3 -3 0 2 -1 3 0 3 -1 1 -5 2 1 6 4 3 -0 2 1 3 1 4 -8 -4 -3 -5 -1 -0 -0
-1 2 1 -1 -2 -5 -3 1 0 -0 1 3 1 -0 1 1 3 -0 -1 -2 -1 -4 -0 1 4 -13 2 -1 5 -6 -3 -3 4 2 4 1 7 6 3 3 2 1 1 1 -1
-3 1 -2 2 -9 -0 -0 -0 -1 0 -1 0 -0 0 1 0 0 0 1 1 -0 5 1 1 2 0 2 -1 2 2 3 2 4 -1 1 3 9 2 3 2 3 2 2 3 4
-2 -2 -3 -2 -2 0 2 1 -0 -1 0 -1 0 1 0 1 -0 1 -0 -1 1 1 3 1 1 -1 0 5 -2 -1 -2 2 1 2 2 5 8 0 -2 -3 -0 1 -0 0 6
-2 -2 -4 -7 -1 -3 -1 1 1 -1 1 -0 1 -1 -2 -0 0 -1 -2 -3 -1 1 1 1 0 3 6 6 6 -1 -2 -1 4 1 1 5 2 -8 -4 0 -4 -5 -1 1 3
-2 1 0 0 -0 -1 -2 -1 0 1 -1 -1 2 0 2 0 -0 -0 -1 -5 -2 -0 -1 -0 1 1 -2 0 -2 2 2 -0 -1 3 2 5 -0 4 4 5 5 5 -1 -1 -2
-3 -5 -2 -0 -0 -1 -1 1 -1 1 0 1 -0 0 1 0 -0 -1 2 1 3 -7 -1 -2 -0 0 -1 1 -1 -1 -1 -0 -0 -1 -2 -1 1 8 0 -1 -4 1 -0 -1 1
-1 1 1 1 0 1 -1 -0 -0 -1 -1 1 1 1 1 -2 1 -2 1 -0 2 5 -0 0 1 -1 -1 0 0 5 4 2 1 -0 6 1 5 -0 -7 -2 1 0 0 2 1
Height
1546 1542 1539 1535 1530 1526 1522 1517 1512 1508 1503 1502 1501 1499 1499 1498 1496 1497 1495 1497 1494 1490 1485 1482 1479 1477 1473 1472 1470 1469 1466 1457 1453 1447 1442 1443 1445 1445 1449 1449 1447 1444 1445 1446 1446
1546 1543 1539 1535 1530 1525 1520 1515 1509 1506 1504 1501 1500 1499 1498 1497 1496 1496 1496 1495 1492 1489 1484 1480 1478 1474 1470 1468 1467 1464 1458 1453 1446 1452 1457 1453 1451 1444 1442 1446 1446 1442 1444 1444 1444
1547 1543 1538 1534 1529 1524 1519 1514 1509 1506 1504 1501 1500 1499 1498 1496 1497 1497 1494 1491 1488 1485 1482 1479 1476 1474 1469 1466 1462 1456 1451 1448 1448 1448 1451 1455 1451 1447 1442 1442 1440 1439 1438 1442 1441
1546 1543 1538 1533 1528 1522 1517 1511 1508 1506 1504 1502 1501 1499 1498 1496 1499 1496 1492 1490 1486 1484 1481 1479 1475 1471 1468 1463 1462 1462 1454 1451 1447 1446 1447 1448 1452 1449 1440 1437 1438 1441 1439 1441 1440
1545 1542 1537 1532 1527 1521 1516 1510 1507 1505 1504 1502 1501 1500 1499 1500 1500 1497 1493 1489 1485 1482 1479 1477 1474 1471 1466 1464 1461 1457 1451 1449 1447 1445 1442 1444 1443 1444 1438 1434 1435 1436 1439 1441 1440
1544 1541 1537 1532 1526 1520 1514 1510 1507 1506 1504 1502 1502 1501 1501 1499 1499 1496 1491 1487 1483 1479 1478 1476 1473 1472 1467 1464 1461 1455 1453 1444 1441 1441 1441 1439 1438 1440 1434 1435 1435 1436 1439 1441 1440
1544 1539 1535 1530 1525 1519 1513 1509 1509 1507 1505 1503 1502 1501 1501 1504 1498 1495 1491 1485 1480 1478 1475 1473 1471 1471 1466 1459 1458 1455 1447 1437 1434 1436 1436 1436 1433 1427 1430 1434 1436 1435 1437 1439 1438
1543 1538 1533 1528 1524 1519 1513 1510 1509 1507 1506 1503 1502 1501 1501 1500 1498 1494 1488 1482 1479 1475 1474 1470 1469 1469 1466 1461 1454 1448 1443 1433 1430 1430 1431 1435 1422 1420 1426 1433 1433 1435 1437 1439 1437
1542 1538 1532 1526 1523 1519 1512 1510 1509 1507 1506 1505 1504 1502 1503 1499 1494 1492 1488 1482 1478 1475 1471 1469 1468 1467 1463 1456 1445 1441 1431 1431 1429 1431 1429 1430 1425 1423 1426 1430 1432 1433 1437 1437 1438
1540 1536 1531 1525 1522 1518 1513 1511 1509 1508 1507 1506 1505 1506 1502 1500 1495 1493 1489 1482 1479 1475 1471 1468 1468 1463 1460 1458 1453 1454 1450 1438 1435 1437 1430 1425 1424 1424 1426 1429 1433 1434 1435 1436 1438
1539 1534 1529 1524 1520 1517 1513 1511 1513 1514 1510 1513 1514 1512 1507 1499 1495 1494 1486 1482 1480 1477 1472 1469 1463 1466 1463 1464 1463 1459 1451 1444 1436 1443 1432 1421 1421 1426 1430 1432 1433 1430 1429 1435 1435
1538 1533 1528 1524 1519 1516 1514 1511 1512 1516 1517 1514 1512 1511 1506 1500 1498 1493 1488 1484 1480 1474 1472 1466 1462 1468 1464 1463 1459 1453 1451 1438 1435 1434 1429 1425 1421 1421 1425 1425 1433 1439 1430 1430 1431
1537 1532 1527 1523 1518 1516 1514 1513 1513 1514 1516 1515 1512 1510 1505 1502 1500 1496 1492 1487 1484 1476 1476 1469 1469 1468 1463 1459 1458 1450 1450 1446 1442 1434 1428 1423 1418 1419 1419 1425 1429 1427 1429 1428 1429
1534 1530 1526 1521 1520 1516 1515 1514 1514 1515 1515 1518 1515 1514 1509 1500 1500 1501 1495 1494 1486 1483 1479 1473 1471 1468 1461 1459 1461 1452 1452 1446 1441 1433 1425 1425 1413 1418 1422 1427 1430 1434 1431 1430 1429
1534 1528 1526 1521 1520 1517 1517 1515 1515 1517 1500 1521 1519 1516 1513 1509 1512 1503 1499 1492 1489 1487 1484 1475 1472 1471 1464 1465 1463 1454 1452 1451 1442 1441 1434 1424 1421 1430 1422 1425 1430 1432 1433 1431 1432
1533 1528 1525 1522 1520 1518 1514 1514 1516 1515 1508 1523 1524 1520 1515 1515 1515 1511 1504 1497 1493 1488 1483 1480 1478 1474 1471 1466 1463 1456 1455 1444 1440 1442 1431 1437 1426 1438 1439 1442 1437 1433 1433 1435 1437
1532 1527 1524 1522 1520 1516 1514 1515 1511 1508 1531 1527 1528 1523 1520 1518 1516 1515 1513 1510 1507 1496 1490 1482 1474 1473 1472 1462 1460 1458 1452 1441 1441 1433 1428 1437 1429 1452 1450 1446 1443 1438 1439 1436 1436
1530 1526 1524 1521 1519 1516 1514 1516 1512 1543 1537 1537 1532 1526 1521 1523 1522 1521 1516 1514 1515 1512 1507 1498 1470 1476 1475 1473 1471 1464 1462 1453 1443 1431 1427 1431 1433 1453 1452 1451 1447 1443 1436 1438 1440
1529 1525 1524 1521 1518 1516 1517 1525 1542 1546 1546 1542 1533 1526 1523 1526 1530 1527 1526 1524 1522 1518 1514 1505 1483 1481 1477 1474 1474 1463 1462 1467 1458 1451 1433 1435 1436 1443 1446 1450 1447 1447 1444 1435 1433
1528 1525 1524 1521 1519 1517 1521 1543 1546 1547 1547 1545 1537 1536 1531 1530 1533 1531 1529 1532 1527 1524 1522 1517 1505 1484 1479 1474 1473 1470 1467 1458 1452 1443 1429 1439 1451 1460 1462 1463 1461 1454 1448 1442 1438
1527 1525 1525 1521 1520 1518 1534 1543 1545 1546 1547 1546 1541 1539 1538 1542 1540 1536 1535 1531 1530 1524 1522 1518 1518 1487 1479 1482 1481 1473 1469 1466 1465 1461 1444 1434 1458 1479 1477 1473 1469 1460 1454 1447 1444
1525 1526 1525 1522 1525 1534 1541 1544 1546 1546 1547 1547 1544 1542 1541 1541 1543 1543 1534 1531 1531 1527 1524 1520 1517 1502 1492 1491 1490 1486 1485 1481 1466 1462 1458 1457 1465 1482 1480 1478 1474 1465 1459 1453 1446
1524 1523 1525 1522 1529 1540 1544 1546 1547 1547 1548 1547 1546 1546 1545 1545 1548 1541 1537 1534 1533 1529 1527 1523 1515 1494 1482 1490 1488 1492 1491 1490 1484 1479 1466 1455 1463 1483 1483 1480 1475 1468 1462 1456 1451
1524 1526 1527 1526 1533 1537 1541 1546 1546 1547 1547 1547 1548 1547 1546 1545 1546 1543 1538 1534 1534 1530 1528 1525 1521 1516 1503 1505 1507 1502 1501 1493 1486 1468 1474 1473 1477 1484 1482 1482 1478 1474 1469 1464 1457
1524 1530 1531 1535 1538 1540 1542 1544 1545 1546 1547 1546 1545 1546 1548 1553 1548 1544 1541 1535 1533 1531 1529 1529 1521 1520 1512 1509 1509 1510 1506 1499 1489 1493 1478 1488 1492 1496 1493 1487 1486 1482 1474 1466 1459
1522 1527 1534 1540 1542 1543 1545 1546 1544 1544 1547 1545 1545 1544 1547 1550 1543 1543 1543 1539 1535 1532 1533 1533 1519 1518 1512 1507 1508 1513 1511 1505 1506 1502 1496 1493 1490 1499 1496 1492 1487 1485 1479 1472 1468
1521 1523 1526 1540 1543 1544 1544 1544 1545 1546 1548 1547 1546 1546 1545 1545 1542 1541 1541 1540 1539 1539 1536 1535 1531 1521 1503 1506 1508 1503 1523 1517 1515 1517 1513 1503 1509 1504 1497 1494 1492 1486 1483 1478 1471